Harvey, ND

4:57 AM CDT on October 19, 2017 (GMT -0500)
Harvey

Weather History for K5H4 - October, 2013

Change the Weather History Date:

Friday, October 18, 2013

  Actual Average (KRUG) Record (KRUG)
Temperature  
Mean Temperature 36 °F -  
Max Temperature 44 °F 53 °F 76 °F (1953)
Min Temperature 28 °F 27 °F 2 °F (1992)
Degree Days  
Heating Degree Days 29    
Moisture  
Dew Point 33 °F    
Average Humidity 87    
Maximum Humidity 100    
Minimum Humidity 61    
Precipitation  
Precipitation 0.00 in - - ()
Sea Level Pressure  
Sea Level Pressure 29.89 in    
Wind  
Wind Speed 8 mph (West)    
Max Wind Speed 20 mph    
Max Gust Speed 25 mph    
Visibility 10 miles    
Events Snow    
Averages and records for this station are not official NWS values.
T = Trace of Precipitation, MM = Missing Value Source: NWS Daily Summary

Daily Weather History Graph

Daily Weather History Graph

Search for Another Location

Airport or City:

Trip Planner

Search our weather history database for the weather conditions in past years. The results will help you decide how hot, cold, wet, or windy it might be!

Date:

Astronomy

Oct. 18, 2013 Rise Set
Actual Time 8:03 AM CDT 6:45 PM CDT
Civil Twilight 7:32 AM CDT 7:16 PM CDT
Nautical Twilight 6:56 AM CDT 7:52 PM CDT
Astronomical Twilight 6:20 AM CDT 8:28 PM CDT
Moon 6:34 PM CDT (10/18) 7:41 AM CDT (10/18)
Length of Visible Light 11h 44m
Length of Day
10h 41m
Full, 100% of the Moon is Illuminated
Oct 18
Full
Oct 18
Full
Oct 26
Last Quarter
Nov 3
New
Nov 9
First Quarter

Hourly Weather History & Observations

Time (CDT) Temp. Windchill Dew Point Humidity Pressure Visibility Wind Dir Wind Speed Gust Speed Precip Events Conditions
12:15 AM 32.0 °F 26.4 °F 28.4 °F 87% 29.97 in 10.0 mi West 5.8 mph - N/A   Partly Cloudy
12:35 AM 30.2 °F 23.4 °F 28.4 °F 93% 29.97 in 10.0 mi West 6.9 mph - N/A   Partly Cloudy
12:55 AM 28.4 °F 21.2 °F 28.4 °F 100% 29.97 in 10.0 mi West 6.9 mph - N/A   Clear
1:15 AM 32.0 °F 25.6 °F 28.4 °F 87% 29.97 in 10.0 mi West 6.9 mph - N/A   Partly Cloudy
1:35 AM 32.0 °F 26.4 °F 28.4 °F 87% 29.96 in 10.0 mi West 5.8 mph - N/A   Mostly Cloudy
1:55 AM 32.0 °F 27.5 °F 30.2 °F 93% 29.96 in 10.0 mi West 4.6 mph - N/A   Mostly Cloudy
2:15 AM 32.0 °F 27.5 °F 30.2 °F 93% 29.97 in 10.0 mi WSW 4.6 mph - N/A   Mostly Cloudy
2:35 AM 32.0 °F 26.4 °F 32.0 °F 100% 29.97 in 10.0 mi SW 5.8 mph - N/A   Mostly Cloudy
2:55 AM 32.0 °F 26.4 °F 32.0 °F 100% 29.96 in 10.0 mi WSW 5.8 mph - N/A   Scattered Clouds
3:15 AM 32.0 °F 26.4 °F 32.0 °F 100% 29.96 in 10.0 mi WSW 5.8 mph - N/A   Scattered Clouds
3:35 AM 32.0 °F 26.4 °F 32.0 °F 100% 29.96 in 10.0 mi West 5.8 mph - N/A   Mostly Cloudy
3:55 AM 33.8 °F 28.6 °F 32.0 °F 93% 29.96 in 10.0 mi West 5.8 mph - N/A   Overcast
4:15 AM 35.6 °F 29.9 °F 32.0 °F 87% 29.95 in 10.0 mi WNW 6.9 mph - N/A   Overcast
4:35 AM 35.6 °F 29.9 °F 32.0 °F 87% 29.95 in 10.0 mi WNW 6.9 mph - N/A   Scattered Clouds
4:55 AM 35.6 °F 29.9 °F 32.0 °F 87% 29.95 in 10.0 mi WNW 6.9 mph - N/A   Partly Cloudy
5:15 AM 35.6 °F 29.2 °F 32.0 °F 87% 29.96 in 10.0 mi WNW 8.1 mph - N/A   Clear
5:35 AM 35.6 °F 28.6 °F 32.0 °F 87% 29.96 in 10.0 mi WNW 9.2 mph - N/A   Scattered Clouds
5:55 AM 35.6 °F 29.2 °F 32.0 °F 87% 29.96 in 10.0 mi WNW 8.1 mph - N/A   Mostly Cloudy
6:15 AM 35.6 °F 29.9 °F 32.0 °F 87% 29.96 in 10.0 mi WNW 6.9 mph - N/A   Mostly Cloudy
6:35 AM 35.6 °F 30.7 °F 32.0 °F 87% 29.96 in 10.0 mi WNW 5.8 mph - N/A   Mostly Cloudy
6:55 AM 35.6 °F 31.7 °F 32.0 °F 87% 29.96 in 10.0 mi West 4.6 mph - N/A   Overcast
7:15 AM 35.6 °F 31.7 °F 32.0 °F 87% 29.96 in 10.0 mi West 4.6 mph - N/A   Scattered Clouds
7:35 AM 35.6 °F 31.7 °F 32.0 °F 87% 29.95 in 10.0 mi West 4.6 mph - N/A   Mostly Cloudy
7:55 AM 35.6 °F 31.7 °F 32.0 °F 87% 29.96 in 10.0 mi West 4.6 mph - N/A   Mostly Cloudy
8:15 AM 33.8 °F 29.6 °F 32.0 °F 93% 29.96 in 10.0 mi WSW 4.6 mph - N/A   Mostly Cloudy
8:35 AM 35.6 °F 31.7 °F 32.0 °F 87% 29.96 in 10.0 mi West 4.6 mph - N/A   Overcast
8:55 AM 35.6 °F 31.7 °F 33.8 °F 93% 29.96 in 10.0 mi West 4.6 mph - N/A   Mostly Cloudy
9:15 AM 35.6 °F 29.9 °F 33.8 °F 93% 29.96 in 10.0 mi West 6.9 mph - N/A   Mostly Cloudy
9:35 AM 35.6 °F 29.9 °F 35.6 °F 100% 29.96 in 10.0 mi West 6.9 mph - N/A   Scattered Clouds
9:55 AM 37.4 °F 31.4 °F 35.6 °F 93% 29.95 in 10.0 mi West 8.1 mph - N/A   Mostly Cloudy
10:15 AM 37.4 °F 30.3 °F 33.8 °F 87% 29.96 in 10.0 mi West 10.4 mph 18.4 mph N/A   Mostly Cloudy
10:35 AM 37.4 °F 29.3 °F 32.0 °F 81% 29.96 in 10.0 mi West 12.7 mph 21.9 mph N/A   Scattered Clouds
10:55 AM 37.4 °F 29.8 °F 33.8 °F 87% 29.96 in 10.0 mi WNW 11.5 mph 17.3 mph N/A   Scattered Clouds
11:15 AM 37.4 °F 30.8 °F 33.8 °F 87% 29.95 in 7.0 mi WNW 9.2 mph - N/A Snow Light Snow
11:35 AM 37.4 °F 28.9 °F 35.6 °F 93% 29.94 in 10.0 mi West 13.8 mph - N/A   Mostly Cloudy
11:55 AM 39.2 °F 30.5 °F 35.6 °F 87% 29.94 in 10.0 mi West 16.1 mph - N/A   Mostly Cloudy
12:15 PM 41.0 °F 33.9 °F 33.8 °F 76% 29.93 in 10.0 mi West 12.7 mph - N/A   Mostly Cloudy
12:35 PM 41.0 °F 33.5 °F 33.8 °F 76% 29.93 in 10.0 mi WNW 13.8 mph 20.7 mph N/A   Mostly Cloudy
12:55 PM 41.0 °F 33.9 °F 33.8 °F 76% 29.92 in 10.0 mi WNW 12.7 mph 21.9 mph N/A   Mostly Cloudy
1:15 PM 41.0 °F 33.1 °F 33.8 °F 76% 29.92 in 10.0 mi West 15.0 mph 23.0 mph N/A   Mostly Cloudy
1:35 PM 42.8 °F 35.1 °F 33.8 °F 70% 29.90 in 10.0 mi West 16.1 mph - N/A   Mostly Cloudy
1:55 PM 42.8 °F 35.4 °F 32.0 °F 66% 29.89 in 10.0 mi WNW 15.0 mph 23.0 mph N/A   Scattered Clouds
2:15 PM 42.8 °F 35.1 °F 33.8 °F 70% 29.88 in 10.0 mi WNW 16.1 mph - N/A   Mostly Cloudy
2:35 PM 41.0 °F 33.9 °F 35.6 °F 81% 29.87 in 10.0 mi West 12.7 mph 24.2 mph N/A   Mostly Cloudy
2:55 PM 44.6 °F 36.6 °F 33.8 °F 66% 29.86 in 10.0 mi West 19.6 mph 25.3 mph N/A   Mostly Cloudy
3:15 PM 44.6 °F 36.9 °F 32.0 °F 61% 29.86 in 10.0 mi WNW 18.4 mph 24.2 mph N/A   Mostly Cloudy
3:35 PM 41.0 °F 32.8 °F 33.8 °F 76% 29.86 in 10.0 mi WNW 16.1 mph 25.3 mph N/A   Mostly Cloudy
3:55 PM 41.0 °F 32.8 °F 35.6 °F 81% 29.85 in 10.0 mi West 16.1 mph - N/A   Scattered Clouds
4:15 PM 41.0 °F 33.9 °F 35.6 °F 81% 29.85 in 10.0 mi WNW 12.7 mph 19.6 mph N/A   Scattered Clouds
4:35 PM 42.8 °F 35.8 °F 33.8 °F 70% 29.84 in 10.0 mi WNW 13.8 mph 19.6 mph N/A   Partly Cloudy
4:55 PM 44.6 °F 38.4 °F 32.0 °F 61% 29.83 in 10.0 mi NW 12.7 mph 17.3 mph N/A   Partly Cloudy
5:15 PM 42.8 °F 36.6 °F 32.0 °F 66% 29.83 in 10.0 mi NW 11.5 mph 17.3 mph N/A   Mostly Cloudy
5:35 PM 42.8 °F 36.2 °F 32.0 °F 66% 29.83 in 10.0 mi WNW 12.7 mph 19.6 mph N/A   Overcast
5:55 PM 41.0 °F 34.7 °F 32.0 °F 70% 29.83 in 10.0 mi WNW 10.4 mph 18.4 mph N/A   Overcast
6:15 PM 41.0 °F 35.2 °F 32.0 °F 70% 29.83 in 10.0 mi NW 9.2 mph - N/A   Overcast
6:35 PM 41.0 °F 35.2 °F 33.8 °F 76% 29.83 in 8.0 mi WNW 9.2 mph 17.3 mph N/A   Overcast
6:55 PM 39.2 °F 33.6 °F 35.6 °F 87% 29.82 in 8.0 mi West 8.1 mph - N/A   Overcast
7:15 PM 39.2 °F 35.0 °F 37.4 °F 93% 29.81 in 10.0 mi West 5.8 mph - N/A   Overcast
7:35 PM 39.2 °F 33.6 °F 37.4 °F 93% 29.81 in 8.0 mi West 8.1 mph - N/A   Overcast
7:55 PM 39.2 °F 33.0 °F 37.4 °F 93% 29.81 in 5.0 mi West 9.2 mph - N/A   Overcast
8:15 PM 37.4 °F 33.8 °F 37.4 °F 100% 29.80 in 8.0 mi WNW 4.6 mph - N/A   Overcast
8:35 PM 37.4 °F - 37.4 °F 100% 29.79 in 10.0 mi Calm Calm - N/A   Mostly Cloudy
8:55 PM 37.4 °F 32.1 °F 37.4 °F 100% 29.78 in 10.0 mi WSW 6.9 mph - N/A   Mostly Cloudy
9:15 PM 35.6 °F 29.9 °F 35.6 °F 100% 29.77 in 10.0 mi SW 6.9 mph - N/A   Mostly Cloudy
9:35 PM 35.6 °F 29.9 °F 35.6 °F 100% 29.77 in 10.0 mi WSW 6.9 mph - N/A   Mostly Cloudy
9:55 PM 35.6 °F 29.9 °F 35.6 °F 100% 29.77 in 10.0 mi WSW 6.9 mph - N/A   Scattered Clouds
10:15 PM 35.6 °F 28.6 °F 35.6 °F 100% 29.76 in 10.0 mi West 9.2 mph - N/A   Partly Cloudy
10:35 PM 35.6 °F 28.6 °F 35.6 °F 100% 29.76 in 10.0 mi West 9.2 mph - N/A   Clear
10:55 PM 35.6 °F 30.7 °F 35.6 °F 100% 29.75 in 10.0 mi West 5.8 mph - N/A   Scattered Clouds
11:15 PM 35.6 °F 28.6 °F 35.6 °F 100% 29.75 in 10.0 mi West 9.2 mph - N/A   Mostly Cloudy
11:35 PM 37.4 °F 31.4 °F 37.4 °F 100% 29.75 in 10.0 mi WNW 8.1 mph - N/A   Mostly Cloudy
11:55 PM 39.2 °F 30.8 °F 37.4 °F 93% 29.75 in 10.0 mi NW 15.0 mph - N/A   Mostly Cloudy